Time,TemperatureF,DewpointF,PressureIn,WindDirection,WindDirectionDegrees,WindSpeedMPH,WindSpeedGustMPH,Humidity,HourlyPrecipIn,Conditions,Clouds,dailyrainin,SoftwareType,DateUTC
2013-03-11 00:02:00,40.0,32.0,-100.00,WSW,257,0.0,11.0,74,-99.99,,,-99.99,,2013-03-11 06:02:00,
2013-03-11 00:12:00,40.0,32.0,-100.00,WSW,257,0.0,11.0,74,-99.99,,,-99.99,,2013-03-11 06:12:00,
2013-03-11 00:22:00,40.0,32.0,-100.00,WSW,257,0.0,11.0,74,-99.99,,,-99.99,,2013-03-11 06:22:00,
2013-03-11 00:32:00,40.0,32.0,-100.00,WSW,257,0.0,11.0,74,-99.99,,,-99.99,,2013-03-11 06:32:00,
2013-03-11 00:42:00,40.0,32.0,-100.00,WSW,257,0.0,11.0,74,-99.99,,,-99.99,,2013-03-11 06:42:00,
2013-03-11 00:53:00,39.0,32.0,-100.00,NW,306,6.0,10.0,75,-99.99,,,-99.99,,2013-03-11 06:53:00,
2013-03-11 01:02:00,39.0,32.0,-100.00,NW,306,6.0,10.0,75,-99.99,,,-99.99,,2013-03-11 07:02:00,
2013-03-11 01:12:00,39.0,32.0,-100.00,NW,306,6.0,10.0,75,-99.99,,,-99.99,,2013-03-11 07:12:00,
2013-03-11 01:22:00,39.0,32.0,-100.00,NW,306,6.0,10.0,75,-99.99,,,-99.99,,2013-03-11 07:22:00,
2013-03-11 03:32:00,37.0,31.0,-100.00,North,5,3.0,14.0,80,-99.99,,,-99.99,,2013-03-11 09:32:00,
2013-03-11 03:42:00,37.0,31.0,-100.00,North,5,3.0,14.0,80,-99.99,,,-99.99,,2013-03-11 09:42:00,
2013-03-11 03:52:00,36.0,31.0,-100.00,ESE,115,7.0,17.0,81,-99.99,,,-99.99,,2013-03-11 09:52:00,
2013-03-11 04:02:00,36.0,31.0,-100.00,NE,37,0.0,13.0,81,-99.99,,,-99.99,,2013-03-11 10:02:00,
2013-03-11 04:12:00,36.0,31.0,-100.00,NE,37,0.0,13.0,81,-99.99,,,-99.99,,2013-03-11 10:12:00,
2013-03-11 04:22:00,36.0,31.0,-100.00,NE,37,0.0,13.0,81,-99.99,,,-99.99,,2013-03-11 10:22:00,
2013-03-11 04:32:00,36.0,31.0,-100.00,NE,37,0.0,13.0,81,-99.99,,,-99.99,,2013-03-11 10:32:00,
2013-03-11 04:52:00,34.0,29.0,-100.00,NW,317,3.0,10.0,81,-99.99,,,-99.99,,2013-03-11 10:52:00,
2013-03-11 05:02:00,34.0,29.0,-100.00,NW,312,0.0,14.0,81,-99.99,,,-99.99,,2013-03-11 11:02:00,
2013-03-11 05:12:00,34.0,29.0,-100.00,NW,312,0.0,14.0,81,-99.99,,,-99.99,,2013-03-11 11:12:00,
2013-03-11 05:22:00,33.0,28.0,-100.00,NE,53,4.0,16.0,81,-99.99,,,-99.99,,2013-03-11 11:22:00,
2013-03-11 05:32:00,33.0,28.0,-100.00,North,11,12.0,13.0,80,-99.99,,,-99.99,,2013-03-11 11:32:00,
2013-03-11 05:42:00,33.0,28.0,-100.00,North,11,12.0,13.0,80,-99.99,,,-99.99,,2013-03-11 11:42:00,
2013-03-11 05:52:00,33.0,28.0,-100.00,NW,312,0.0,10.0,80,-99.99,,,-99.99,,2013-03-11 11:52:00,
2013-03-11 06:02:00,33.0,27.0,-100.00,WNW,295,4.0,6.0,79,-99.99,,,-99.99,,2013-03-11 12:02:00,
2013-03-11 06:12:00,33.0,27.0,-100.00,WNW,295,4.0,6.0,79,-99.99,,,-99.99,,2013-03-11 12:12:00,
2013-03-11 06:22:00,33.0,27.0,-100.00,WNW,295,4.0,6.0,79,-99.99,,,-99.99,,2013-03-11 12:22:00,
2013-03-11 06:32:00,33.0,27.0,-100.00,North,355,9.0,11.0,77,-99.99,,,-99.99,,2013-03-11 12:32:00,
2013-03-11 06:42:00,33.0,27.0,-100.00,North,355,9.0,11.0,77,-99.99,,,-99.99,,2013-03-11 12:42:00,
2013-03-11 06:53:00,33.0,27.0,-100.00,North,358,5.0,10.0,77,-99.99,,,-99.99,,2013-03-11 12:53:00,
2013-03-11 07:02:00,32.0,26.0,-100.00,ENE,63,0.0,5.0,78,-99.99,,,-99.99,,2013-03-11 13:02:00,
2013-03-11 07:12:00,32.0,26.0,-100.00,ENE,63,0.0,5.0,78,-99.99,,,-99.99,,2013-03-11 13:12:00,
2013-03-11 07:22:00,32.0,26.0,-100.00,ENE,63,0.0,5.0,78,-99.99,,,-99.99,,2013-03-11 13:22:00,
2013-03-11 07:32:00,32.0,26.0,-100.00,NNW,334,0.0,6.0,79,-99.99,,,-99.99,,2013-03-11 13:32:00,
2013-03-11 07:42:00,32.0,26.0,-100.00,NNW,334,0.0,6.0,79,-99.99,,,-99.99,,2013-03-11 13:42:00,
2013-03-11 07:53:00,31.0,26.0,-100.00,NNE,32,0.0,8.0,81,-99.99,,,-99.99,,2013-03-11 13:53:00,
2013-03-11 08:02:00,30.0,25.0,-100.00,NNE,29,0.0,8.0,81,-99.99,,,-99.99,,2013-03-11 14:02:00,
2013-03-11 08:12:00,30.0,25.0,-100.00,NNE,29,0.0,8.0,81,-99.99,,,-99.99,,2013-03-11 14:12:00,
2013-03-11 08:22:00,31.0,26.0,-100.00,NW,305,10.0,10.0,81,-99.99,,,-99.99,,2013-03-11 14:22:00,
2013-03-11 08:32:00,31.0,26.0,-100.00,NW,305,10.0,10.0,81,-99.99,,,-99.99,,2013-03-11 14:32:00,
2013-03-11 08:42:00,31.0,26.0,-100.00,NW,305,10.0,10.0,81,-99.99,,,-99.99,,2013-03-11 14:42:00,
2013-03-11 08:52:00,31.0,26.0,-100.00,NW,305,10.0,10.0,81,-99.99,,,-99.99,,2013-03-11 14:52:00,
2013-03-11 09:02:00,32.0,26.0,-100.00,North,8,6.0,12.0,79,-99.99,,,-99.99,,2013-03-11 15:02:00,
2013-03-11 09:12:00,32.0,26.0,-100.00,North,8,6.0,12.0,79,-99.99,,,-99.99,,2013-03-11 15:12:00,
2013-03-11 09:22:00,32.0,26.0,-100.00,North,8,6.0,12.0,79,-99.99,,,-99.99,,2013-03-11 15:22:00,
2013-03-11 09:32:00,32.0,26.0,-100.00,North,8,6.0,12.0,79,-99.99,,,-99.99,,2013-03-11 15:32:00,
2013-03-11 10:22:00,33.0,26.0,-100.00,SE,137,0.0,15.0,75,-99.99,,,-99.99,,2013-03-11 16:22:00,
2013-03-11 10:32:00,33.0,26.0,-100.00,SE,137,0.0,15.0,75,-99.99,,,-99.99,,2013-03-11 16:32:00,
2013-03-11 10:43:00,33.0,26.0,-100.00,SE,137,0.0,15.0,75,-99.99,,,-99.99,,2013-03-11 16:43:00,
2013-03-11 10:52:00,33.0,26.0,-100.00,SE,137,0.0,15.0,75,-99.99,,,-99.99,,2013-03-11 16:52:00,
2013-03-11 20:52:00,25.0,23.0,-100.00,East,82,11.0,21.0,91,-99.99,,,-99.99,,2013-03-12 02:52:00,
2013-03-11 21:02:00,25.0,23.0,-100.00,East,82,11.0,21.0,91,-99.99,,,-99.99,,2013-03-12 03:02:00,
2013-03-11 21:12:00,25.0,23.0,-100.00,East,82,11.0,21.0,91,-99.99,,,-99.99,,2013-03-12 03:12:00,
2013-03-11 21:22:00,25.0,23.0,-100.00,East,82,11.0,21.0,91,-99.99,,,-99.99,,2013-03-12 03:22:00,
2013-03-11 22:22:00,23.0,21.0,-100.00,North,358,4.0,5.0,92,-99.99,,,-99.99,,2013-03-12 04:22:00,
2013-03-11 22:32:00,23.0,21.0,-100.00,NW,309,3.0,6.0,92,-99.99,,,-99.99,,2013-03-12 04:32:00,
2013-03-11 22:43:00,23.0,21.0,-100.00,NW,309,3.0,6.0,92,-99.99,,,-99.99,,2013-03-12 04:43:00,
2013-03-11 22:52:00,23.0,21.0,-100.00,NW,309,3.0,6.0,92,-99.99,,,-99.99,,2013-03-12 04:52:00,
2013-03-11 23:02:00,23.0,21.0,-100.00,North,358,5.0,6.0,92,-99.99,,,-99.99,,2013-03-12 05:02:00,
2013-03-11 23:12:00,23.0,21.0,-100.00,North,358,5.0,6.0,92,-99.99,,,-99.99,,2013-03-12 05:12:00,
2013-03-11 23:22:00,23.0,21.0,-100.00,North,358,5.0,6.0,92,-99.99,,,-99.99,,2013-03-12 05:22:00,
2013-03-11 23:32:00,23.0,21.0,-100.00,NNW,343,7.0,8.0,91,-99.99,,,-99.99,,2013-03-12 05:32:00,
2013-03-11 23:42:00,23.0,21.0,-100.00,NNW,343,7.0,8.0,91,-99.99,,,-99.99,,2013-03-12 05:42:00,
2013-03-11 23:52:00,23.0,21.0,-100.00,NE,54,7.0,10.0,90,-99.99,,,-99.99,,2013-03-12 05:52:00,